OBJECT A                
1 40899U 15049A   19266.07314471  .00000447  00000-0  26403-4 0  9994
2 40899  97.4641 267.9179 0013491 233.4858 212.0114 15.16414002221746
NUDT-PHONESAT           
1 40900U 15049B   19266.02789275  .00001368  00000-0  61022-4 0  9999
2 40900  97.4382 274.4303 0011827 200.8052 216.5816 15.23048414222329
ZDPS 2A                 
1 40901U 15049C   19266.06215744  .00000656  00000-0  35725-4 0  9999
2 40901  97.4618 270.5049 0012095 223.1642 221.1229 15.17836297221851
ZDPS 2B                 
1 40902U 15049D   19266.09841744  .00000561  00000-0  31181-4 0  9995
2 40902  97.4575 267.9595 0012189 221.2104 224.7778 15.17686941221831
XW-2A                   
1 40903U 15049E   19266.14252339  .00001309  00000-0  32546-4 0  9995
2 40903  97.3286 309.4157 0014036 150.1460 274.7340 15.42100266225118
KAITUO 1A               
1 40904U 15049F   19266.13436628  .00000576  00000-0  33949-4 0  9993
2 40904  97.4702 266.5081 0013165 230.9831 195.0176 15.15435672221607
OBJECT G                
1 40905U 15049G   19266.15092146 -.00000024  00000-0  22946-5 0  9994
2 40905  97.4752 263.9753 0014371 226.4728 198.5611 15.14342238221476
XW-2C                   
1 40906U 15049H   19266.24537098  .00000459  00000-0  27541-4 0  9991
2 40906  97.4709 266.7421 0013524 220.8481 194.7429 15.15755040221627
XW-2D                   
1 40907U 15049J   19266.07627899  .00000338  00000-0  21083-4 0  9993
2 40907  97.4688 266.2555 0012893 218.7757 182.7806 15.15947677221611
LILACSAT-2              
1 40908U 15049K   19266.03002041 -.00000064  00000-0  91592-7 0  9998
2 40908  97.4826 264.9349 0014602 227.5719 204.6679 15.13847500221386
XW-2E                   
1 40909U 15049L   19266.08195392  .00000556  00000-0  30702-4 0  9994
2 40909  97.4619 269.2488 0012373 212.5680 188.3979 15.17908359221816
XW-2F                   
1 40910U 15049M   19266.07856628  .00000574  00000-0  32025-4 0  9991
2 40910  97.4655 268.4012 0013703 210.1387 193.8500 15.17421498221633
XW-2B                   
1 40911U 15049N   19266.24794245  .00000553  00000-0  32328-4 0  9990
2 40911  97.4717 267.0908 0012776 218.1492 197.0946 15.15878198221536
KAITUO 1B               
1 40912U 15049P   19266.09390571  .00000654  00000-0  33735-4 0  9993
2 40912  97.4516 272.2079 0014261 190.2926 211.1824 15.19748482221959
CZ-6 R/B                
1 40913U 15049Q   19265.11021945  .00002144  00000-0  38475-4 0  9994
2 40913  97.2805 311.3213 0071118 123.0300 237.7810 15.48305023225593